Theta_e
296 295 295 296 296 297 298 298 299 301 305 306 305 311 319 321 320 317 311 311 311 313 320 322 319 316 313 311 312 312 312 311 310 310 310 309 309 311 311 310 312 312 310 310 309 309 311 310 309 310 309 308 313 314 311 312 312 313 316 317 316 317 316 316 317 315 312 312 311 310 311 310 311 315 315 312 315 322 323 324 324 321 322 321 320 323 322
296 295 295 295 295 297 298 298 299 301 304 304 305 314 319 317 319 319 312 310 310 312 316 317 316 315 313 312 311 311 310 308 308 309 311 310 309 310 309 309 310 310 309 308 307 309 311 310 309 310 309 309 311 312 311 311 312 314 319 318 315 317 319 317 316 317 317 316 314 314 314 312 311 313 314 312 312 316 320 320 318 321 324 320 319 325 325
295 295 295 295 295 296 297 298 300 301 304 305 307 313 316 316 318 319 312 308 310 311 313 313 315 316 314 313 312 310 308 308 308 309 310 310 310 310 309 308 308 308 308 308 307 308 310 310 310 310 310 308 308 309 310 311 313 315 317 316 316 319 319 316 315 317 317 316 315 314 313 310 308 309 310 310 309 310 315 316 314 318 321 317 319 326 324
295 295 295 295 295 295 296 298 299 302 305 306 307 311 318 317 314 315 314 312 311 312 312 312 313 313 311 311 311 309 308 309 309 309 310 310 308 309 309 308 308 308 308 309 309 309 309 310 309 309 309 309 309 309 308 309 313 315 315 315 316 316 314 314 316 317 315 314 314 312 309 307 307 307 308 309 310 311 313 312 314 319 319 316 318 321 319
296 295 295 295 295 294 295 296 298 301 305 307 308 314 319 315 312 312 312 314 315 313 310 310 311 312 311 310 309 309 309 309 309 309 310 309 308 309 309 308 309 310 309 309 310 310 309 309 310 310 310 310 309 309 308 309 314 316 314 314 315 312 312 315 315 313 311 310 309 308 307 307 307 307 308 309 311 312 311 311 315 317 313 313 315 314 313
296 296 295 295 294 293 294 296 297 300 305 307 308 313 315 311 312 311 308 311 315 312 309 308 308 310 311 310 310 310 310 310 310 309 308 308 309 310 311 310 308 309 309 309 310 311 311 311 312 312 311 311 311 310 309 309 312 313 312 312 313 313 314 316 312 309 309 307 307 307 307 307 308 309 310 310 311 312 312 312 314 313 310 312 314 312 313
296 296 296 296 294 293 294 296 297 299 304 306 306 309 311 310 311 311 307 308 310 309 309 309 309 312 313 312 311 311 311 311 310 308 309 311 309 309 311 310 308 307 308 308 310 313 314 315 314 312 311 312 312 311 311 309 309 309 308 309 311 312 314 313 310 309 308 306 307 308 307 308 308 308 309 309 310 311 311 311 311 311 311 313 313 313 313
295 295 296 296 295 293 293 296 299 300 304 307 306 306 308 308 309 310 309 308 309 310 311 310 311 314 314 313 312 310 311 312 310 306 308 310 309 308 309 308 306 305 306 307 310 313 314 314 312 310 311 312 312 311 311 310 308 307 307 309 310 312 312 310 308 310 310 307 307 307 307 308 308 307 308 308 309 310 309 309 310 309 310 312 312 313 312
295 295 295 296 295 294 293 294 298 300 303 306 307 306 305 305 305 307 309 310 311 311 311 309 311 312 311 311 312 309 309 309 308 306 306 306 307 307 307 308 308 306 306 308 309 310 311 311 309 308 308 309 309 309 309 309 308 308 308 309 309 310 311 309 308 310 309 306 306 307 308 309 308 307 308 308 309 311 310 310 311 309 309 310 311 311 309
295 295 295 295 295 294 293 294 295 298 300 301 303 305 304 303 304 305 307 311 311 310 309 308 310 311 310 309 309 308 307 305 306 308 307 305 306 307 306 308 309 308 308 309 308 307 306 306 306 306 306 305 305 305 306 306 307 308 308 308 308 308 309 308 308 309 308 306 307 309 309 309 308 310 312 310 308 310 309 310 312 311 309 310 311 310 309
295 295 295 295 295 295 294 294 294 296 297 297 299 303 303 303 304 305 307 310 311 309 308 308 308 309 308 308 308 307 306 306 306 307 307 306 306 306 306 306 307 306 307 307 305 304 303 303 304 303 304 304 303 304 304 304 305 306 306 307 307 306 307 308 307 307 308 307 307 309 309 307 306 310 313 310 309 310 309 310 312 312 310 311 311 310 309
294 294 294 295 295 295 295 294 294 294 295 296 298 301 302 302 303 305 307 308 310 309 308 308 307 306 307 308 308 307 306 307 307 306 307 306 306 306 306 306 307 306 306 305 304 303 303 302 302 302 302 303 303 302 303 303 304 305 304 305 307 306 308 309 307 307 308 308 307 308 307 306 307 308 311 309 309 311 311 310 311 312 312 312 311 310 310
294 294 294 295 295 295 295 295 295 294 294 295 298 299 301 301 301 303 305 306 307 307 307 306 305 305 307 308 308 307 306 306 307 307 307 306 306 306 305 305 307 306 304 305 304 303 303 303 302 303 303 302 302 302 303 303 303 304 303 304 304 306 308 308 307 308 308 306 307 307 306 306 306 309 311 311 311 314 313 312 313 312 312 312 310 311 311
294 294 294 294 294 294 294 295 295 295 294 294 296 298 300 300 300 301 303 304 305 305 305 305 305 305 306 307 307 306 304 305 306 306 306 306 306 306 305 305 305 304 303 304 305 304 304 304 305 305 304 303 304 305 304 303 303 304 304 304 303 304 306 308 309 309 307 307 308 308 306 306 306 309 312 313 314 315 314 313 314 312 310 310 311 311 311
294 294 294 294 295 294 294 294 295 295 295 294 294 298 299 299 300 300 301 302 303 304 305 305 305 305 305 305 304 305 305 306 307 305 305 304 304 304 304 303 303 304 304 305 305 305 304 304 305 306 305 304 305 306 304 302 303 304 304 304 304 303 305 307 307 308 309 309 308 307 307 307 307 311 315 313 314 316 314 312 313 311 309 309 310 310 310
294 294 294 294 294 294 294 294 294 295 295 294 294 296 298 299 298 298 299 300 302 305 305 304 303 303 304 304 303 304 305 306 306 306 306 305 302 301 302 302 302 304 304 304 304 304 304 304 304 305 305 304 303 304 303 302 303 303 303 304 304 305 305 306 306 307 309 309 308 307 307 306 308 312 314 311 312 315 313 311 310 309 308 309 309 309 310
294 294 294 294 294 294 294 294 294 295 295 295 294 295 297 298 298 298 299 299 301 303 303 301 300 302 303 303 303 304 304 304 304 304 304 303 300 299 301 301 302 303 304 304 303 303 305 304 304 305 304 302 301 303 303 302 303 304 305 304 304 306 307 308 307 307 308 309 308 307 306 306 309 311 311 311 311 312 310 308 308 309 309 308 308 309 310
293 293 293 293 294 294 294 294 294 295 295 295 294 295 296 297 298 298 298 299 300 302 301 299 299 300 301 301 302 303 302 303 303 302 302 302 300 299 300 301 301 302 303 304 304 304 304 304 304 304 304 303 301 303 303 302 302 304 303 303 304 306 308 309 309 308 308 309 308 307 307 308 309 309 310 310 310 308 308 309 310 309 308 307 307 307 309
293 293 293 293 293 294 294 294 294 295 295 295 294 294 295 296 297 298 297 297 299 300 299 298 298 299 298 299 300 301 301 301 302 302 304 304 301 299 300 302 301 302 303 303 303 304 304 304 303 303 303 304 302 303 304 303 302 303 303 303 305 306 307 308 308 308 309 309 307 307 307 306 308 309 308 308 308 308 309 309 308 307 307 307 307 307 307
293 293 293 293 293 293 294 294 294 295 295 295 294 294 295 296 297 298 298 298 297 297 297 297 298 298 297 298 299 299 299 300 300 300 301 302 300 299 303 304 302 302 304 304 303 304 304 304 304 303 303 304 302 302 304 302 301 302 301 302 303 304 305 307 306 305 307 306 305 305 304 305 309 309 306 307 309 310 308 306 305 307 307 307 307 307 308
293 293 293 293 293 293 294 294 294 294 295 294 294 294 295 295 296 297 298 297 297 297 298 298 297 297 297 297 297 298 298 299 299 298 298 299 299 299 301 301 299 300 301 302 302 302 302 302 302 302 302 302 301 302 303 303 303 302 300 301 302 302 303 305 304 303 304 304 304 303 303 305 308 308 306 308 310 309 307 305 306 307 308 307 308 309 308
293 293 293 293 293 293 293 294 294 294 295 295 294 294 294 295 295 295 296 296 297 297 297 297 296 296 297 297 297 298 298 298 298 297 298 298 299 299 299 299 298 299 299 300 300 301 301 301 301 301 301 301 302 302 302 302 303 303 300 302 303 302 302 304 305 304 302 302 303 303 302 302 305 306 305 306 307 308 308 307 307 308 308 308 309 309 309
293 293 293 293 293 293 293 293 294 294 295 295 295 294 294 294 294 295 295 296 296 297 297 296 296 297 298 298 298 299 299 298 298 297 297 298 300 300 299 298 299 299 299 300 300 300 301 301 300 301 301 301 301 301 301 301 302 301 301 301 301 301 301 302 303 304 301 300 301 303 302 302 302 302 302 302 303 306 309 308 308 310 310 309 308 308 308
293 293 293 293 293 293 293 294 294 294 295 295 295 294 294 293 294 295 296 296 297 297 297 296 297 297 298 298 298 298 298 298 298 297 297 298 299 300 299 299 299 299 299 300 300 300 300 300 300 300 300 300 299 300 300 301 301 300 301 301 299 299 300 299 300 301 301 301 301 300 301 301 301 301 302 302 303 305 306 307 307 308 309 309 308 307 308
293 293 293 292 293 293 293 294 294 294 295 295 295 294 294 294 294 294 295 296 296 296 296 296 296 297 297 297 297 297 297 297 297 297 297 297 298 299 299 298 298 298 299 299 300 300 300 300 300 300 300 299 299 299 300 300 299 300 300 300 299 299 300 299 299 300 300 300 300 299 300 300 301 303 303 304 304 305 305 306 307 307 308 308 306 306 307
293 293 292 292 292 293 293 294 294 294 294 294 294 294 294 294 294 294 294 295 296 296 296 296 297 297 297 297 296 296 297 297 297 297 297 297 297 297 298 298 298 298 298 299 300 300 300 300 300 299 299 299 299 299 299 299 299 299 299 299 299 300 300 299 299 299 299 300 300 300 300 299 300 302 303 303 305 306 305 305 306 307 306 305 304 303 304
293 292 292 292 292 292 293 294 294 294 294 294 294 294 294 294 294 294 294 295 295 296 296 297 296 296 296 296 296 296 296 297 297 296 297 297 297 297 297 298 299 299 299 299 300 300 300 299 299 299 299 299 298 299 299 298 299 299 299 298 298 299 299 299 300 300 300 300 300 301 301 300 300 301 302 302 303 304 305 305 306 306 305 305 306 305 303
293 292 292 292 292 292 293 293 293 293 293 293 293 293 294 294 294 294 294 295 295 296 296 296 295 295 296 296 296 296 296 296 296 297 297 297 297 297 297 298 299 299 299 299 299 299 299 299 299 299 300 299 299 299 299 299 299 299 299 298 298 299 298 298 299 300 300 300 299 300 301 300 300 301 301 301 301 303 305 306 306 306 306 306 307 306 303
293 293 293 293 293 293 293 293 293 293 293 293 293 294 294 295 295 295 295 295 295 296 296 296 295 296 296 296 296 295 296 296 296 297 297 297 297 297 297 298 298 299 299 299 299 299 299 299 299 299 299 299 299 299 299 299 299 299 298 298 298 299 298 298 298 298 298 299 300 300 301 300 300 301 301 301 301 302 304 305 306 306 305 304 305 305 305
293 293 293 293 293 293 293 293 293 293 293 293 294 294 295 296 296 296 296 296 296 296 296 296 295 295 295 295 295 295 296 296 297 297 297 298 298 297 297 297 298 299 299 299 299 299 299 299 299 299 299 299 299 299 299 298 298 298 297 298 299 299 298 299 299 298 298 299 300 301 300 301 301 301 302 302 301 303 305 305 305 305 304 303 304 305 304
293 293 293 293 293 293 293 293 293 294 294 294 294 295 296 297 297 296 295 295 296 296 296 295 295 295 295 296 296 296 296 296 297 297 297 297 297 297 297 297 299 300 300 299 298 298 299 299 299 299 299 300 299 298 298 298 298 298 297 298 299 299 298 299 299 299 300 301 302 301 301 301 302 302 302 301 301 303 304 304 303 303 303 303 303 304 303
293 292 292 291 291 292 292 292 293 293 294 294 294 295 296 297 296 295 293 294 295 296 295 295 295 295 296 296 296 296 296 297 297 297 297 297 298 298 297 298 299 300 300 298 298 298 299 299 298 298 298 299 299 298 298 298 298 297 297 297 298 298 298 298 299 300 301 302 302 301 301 301 302 303 302 301 301 302 304 304 302 301 301 302 303 303 303
292 291 291 291 291 292 292 292 292 292 293 293 293 294 295 296 296 295 294 294 295 295 295 295 295 295 296 296 296 296 296 297 297 298 298 298 298 297 298 299 299 299 299 298 298 299 300 299 299 299 299 299 299 298 298 297 297 297 297 297 297 298 299 300 301 301 301 302 302 302 300 300 301 302 301 301 301 301 302 303 302 301 303 304 304 304 304
291 291 292 292 292 292 292 293 293 292 292 292 293 295 295 295 295 295 294 294 294 295 295 295 295 295 296 296 296 296 296 296 296 297 297 297 297 296 298 298 298 298 298 299 299 299 299 299 299 299 299 298 299 299 298 297 297 297 297 297 298 299 300 300 299 300 301 302 303 303 302 301 301 301 300 301 302 302 301 302 302 303 305 306 305 305 304
291 292 293 293 293 293 293 293 293 293 294 295 296 297 296 295 294 293 293 294 295 295 295 295 295 296 296 296 297 297 295 295 296 296 297 297 296 295 296 297 297 297 297 297 298 298 298 299 300 299 298 298 298 298 298 297 297 297 298 299 300 301 301 300 300 300 301 302 302 303 303 303 302 302 302 303 303 302 302 302 302 302 303 305 306 306 304
292 293 293 293 294 295 295 295 294 295 296 296 296 296 295 295 293 293 293 294 295 295 295 295 296 296 296 296 296 296 295 295 296 295 295 295 295 295 295 295 296 296 295 295 296 296 297 298 299 298 297 297 297 297 298 298 298 299 299 299 301 301 300 301 301 301 301 302 302 303 303 303 303 303 303 302 301 301 300 300 300 300 301 304 306 306 304
293 294 294 294 296 297 297 297 296 296 295 294 294 294 294 294 294 294 295 295 295 295 295 295 296 296 296 296 297 296 295 296 295 294 295 295 295 294 294 294 295 295 294 294 295 296 296 297 296 296 297 298 297 298 299 299 299 300 299 299 300 301 301 302 303 302 301 302 302 301 301 301 300 300 300 299 299 299 299 299 299 299 300 303 306 305 302
293 294 294 294 295 297 297 296 295 295 294 293 294 295 295 295 295 296 296 296 296 296 295 295 296 296 296 297 297 296 295 295 295 294 294 295 294 294 294 294 294 294 293 294 296 296 296 296 296 297 298 298 298 298 299 298 299 300 299 299 299 300 300 301 302 301 301 300 300 298 298 298 298 298 298 297 297 298 298 299 299 300 302 303 304 302 300
293 293 293 294 294 295 295 294 294 294 294 294 295 296 296 296 296 296 296 296 296 296 296 296 296 297 296 296 296 295 294 295 295 295 295 294 294 294 293 293 293 294 293 294 296 297 297 296 296 297 299 299 298 299 299 299 298 298 297 297 298 298 299 300 300 299 298 298 297 296 296 296 296 296 296 297 297 297 298 299 300 302 303 303 301 300 300
292 292 293 293 294 294 293 293 294 295 295 295 295 295 296 296 296 296 296 296 296 296 296 297 297 296 296 295 295 295 294 294 294 295 294 294 294 293 293 292 293 294 293 294 295 296 297 297 296 297 299 299 299 299 299 299 299 297 296 296 297 298 298 299 299 298 297 296 296 295 295 295 295 295 295 296 297 297 298 299 300 301 302 301 301 301 301
292 292 292 293 293 293 293 294 295 295 295 294 295 295 295 296 296 295 294 294 294 294 295 296 296 295 295 295 294 294 294 294 294 294 294 294 294 293 293 293 293 293 293 294 295 295 296 296 296 297 298 299 298 299 299 299 299 298 297 297 298 298 299 298 297 296 296 295 294 294 294 294 294 294 294 295 296 297 297 297 298 299 300 300 300 300 300
291 292 292 293 293 293 294 295 295 295 295 294 294 294 294 294 294 294 294 294 294 294 294 295 294 294 294 294 294 294 294 294 294 294 294 294 294 293 293 293 293 293 293 295 295 295 295 296 296 297 297 297 298 298 298 298 298 297 297 297 298 299 298 297 296 295 295 294 294 294 294 294 293 293 293 294 296 296 296 296 296 298 298 298 298 297 297
292 293 293 294 294 295 295 295 295 295 294 294 293 293 293 293 293 294 294 294 294 295 295 295 294 294 294 294 294 294 294 293 293 294 294 293 293 293 293 292 293 293 295 295 295 295 296 296 296 297 297 297 297 297 297 297 297 297 296 297 298 298 298 297 296 295 295 294 294 294 294 293 293 293 293 293 294 295 296 296 296 297 297 297 296 296 295
293 294 294 294 294 294 294 294 294 294 294 293 293 293 293 294 294 294 295 294 295 295 295 294 294 295 295 294 294 294 293 294 294 294 293 293 293 293 292 293 293 294 295 295 295 296 297 297 296 297 297 296 296 297 296 296 297 297 296 297 298 298 297 296 295 295 294 294 294 294 293 293 293 293 292 292 293 294 295 295 295 296 296 296 296 296 296
293 294 293 293 293 293 293 293 293 293 293 294 294 294 294 294 295 295 295 295 294 295 295 295 294 294 295 294 294 293 293 294 294 293 293 293 292 292 292 293 294 294 295 295 295 296 296 297 297 297 296 296 296 296 296 296 296 296 296 297 297 297 296 296 295 295 294 294 294 293 293 293 293 292 292 292 292 292 294 294 295 295 295 295 296 296 296
293 294 293 292 293 293 292 292 292 293 293 294 295 295 295 295 294 294 295 295 294 294 295 295 294 294 294 294 294 294 293 293 293 294 293 292 292 292 293 293 294 294 295 295 295 296 296 296 297 296 295 295 295 296 296 296 295 295 296 298 298 297 296 295 295 295 294 294 294 293 293 293 293 292 292 292 292 292 292 293 293 294 294 294 294 294 295
293 293 292 292 292 293 292 292 293 294 294 294 294 295 295 295 294 294 295 295 294 294 294 294 294 295 295 294 293 294 294 293 293 293 293 292 292 292 293 293 294 294 295 295 295 295 295 296 297 296 295 295 295 296 296 296 295 295 297 298 298 296 295 295 295 295 294 294 294 293 293 293 292 292 292 292 292 292 292 292 292 293 293 293 293 294 294
293 292 292 292 292 293 293 294 294 294 294 294 294 295 295 295 294 294 295 295 295 294 294 294 295 294 294 294 294 294 294 293 292 292 292 292 291 292 292 293 294 295 295 295 296 296 295 296 297 296 295 295 296 296 296 296 295 295 297 298 298 296 295 295 295 294 294 294 294 293 293 293 292 292 292 292 292 292 292 292 292 292 293 293 293 293 293
293 292 292 292 292 293 294 294 293 292 293 294 295 295 295 295 294 294 295 295 295 294 294 294 294 293 293 293 293 293 293 292 291 291 292 291 291 291 292 293 294 294 294 295 296 296 296 296 296 296 295 294 295 296 295 295 295 296 297 297 297 296 295 295 295 294 294 294 293 293 293 293 292 292 292 292 292 292 292 292 292 292 292 292 292 292 292
292 292 292 292 292 293 293 293 293 293 293 294 294 295 295 295 294 295 295 295 295 295 295 295 294 293 293 293 292 291 292 292 291 291 291 291 291 292 293 293 293 294 294 295 296 296 297 296 296 295 294 294 295 295 295 295 295 296 296 296 296 296 295 295 295 295 294 294 293 293 293 293 292 292 292 292 292 292 292 292 292 292 292 292 292 292 292
292 291 292 292 292 292 292 292 293 293 293 293 293 294 294 294 294 295 294 294 294 294 294 294 294 293 292 292 291 291 291 291 291 292 292 291 292 293 294 294 294 295 295 296 297 297 296 296 295 294 294 294 295 295 295 295 295 296 296 296 296 296 295 295 295 295 294 294 294 293 293 293 292 292 292 292 292 292 292 292 292 292 292 292 292 292 292
291 291 292 292 292 292 292 292 292 293 293 293 293 294 294 294 295 294 294 293 294 294 294 294 293 292 292 292 292 292 291 291 291 291 291 292 293 294 294 295 296 296 296 297 297 296 295 294 294 293 293 294 295 296 295 295 295 296 296 296 296 296 295 295 295 295 294 294 294 294 293 293 293 293 293 292 292 292 291 292 292 292 292 292 292 292 292
Wind_Speed
31 32 32 32 32 32 32 33 34 37 37 33 30 18 3 1 5 5 1 7 7 3 2 4 3 2 4 6 6 5 5 6 5 4 5 4 3 2 3 4 3 3 4 4 5 5 2 3 4 4 6 5 0 3 5 4 3 3 3 2 1 1 2 1 3 3 4 7 8 10 11 10 7 4 3 3 1 3 5 5 3 3 3 3 3 2 7
31 32 33 33 33 32 31 31 31 33 37 36 25 10 2 3 4 4 2 12 12 4 1 4 4 4 5 6 7 8 6 6 7 6 4 2 4 3 3 4 3 3 4 4 5 5 2 2 3 4 4 3 1 1 4 4 3 3 3 2 1 1 0 1 2 4 5 5 4 5 5 4 2 3 5 5 3 2 1 1 2 1 4 5 4 3 7
32 32 33 33 33 33 32 30 29 27 31 35 21 3 2 4 3 2 6 14 12 2 1 3 2 4 6 6 7 7 5 5 8 9 4 1 3 2 2 5 4 3 5 5 5 5 4 2 2 3 4 4 5 4 1 5 3 3 7 7 4 2 2 2 1 4 5 3 2 1 4 4 3 4 6 8 7 5 2 1 1 1 4 3 4 4 7
32 33 34 34 33 34 32 30 29 24 26 32 21 4 2 3 2 3 6 8 6 1 4 5 2 4 6 5 5 5 5 6 7 7 3 2 2 1 1 5 5 4 5 5 5 5 5 5 4 4 5 4 4 7 7 2 5 8 9 8 5 2 2 3 5 6 6 5 5 4 6 6 7 9 10 9 8 5 2 2 1 3 3 3 4 5 6
32 33 35 35 34 34 33 31 30 24 22 27 19 4 1 2 1 3 4 4 4 4 6 5 4 5 5 3 4 5 6 6 4 3 2 2 4 2 1 2 3 4 5 4 3 4 5 6 5 5 6 5 5 9 12 7 6 9 7 5 5 3 2 5 7 9 9 8 9 8 7 8 10 11 13 12 8 4 4 2 5 4 2 5 6 3 3
31 32 34 36 36 34 33 31 31 26 21 22 15 3 2 3 1 3 4 3 3 5 6 7 7 7 6 3 4 6 7 6 4 3 3 4 4 2 0 1 2 4 6 6 4 3 4 5 4 4 5 6 7 8 9 7 2 1 1 2 4 3 3 6 7 8 10 8 8 8 8 9 10 11 13 12 7 4 3 6 8 5 3 7 8 5 5
31 31 32 35 35 35 34 32 32 27 20 19 15 5 3 4 2 3 5 2 4 5 7 10 9 7 5 4 4 5 6 5 6 6 4 2 4 5 3 3 4 5 7 7 3 2 1 2 3 4 5 5 5 5 6 5 5 5 4 1 1 1 3 4 4 7 8 7 7 9 8 8 10 13 13 9 6 6 7 8 7 5 6 8 8 7 8
30 30 31 32 33 35 34 32 32 29 20 17 16 9 5 4 3 3 4 3 5 6 6 7 6 5 5 4 4 5 6 5 5 5 4 4 5 6 6 7 8 7 8 7 4 2 4 4 2 4 5 5 4 2 3 4 6 7 5 3 1 1 1 3 2 5 6 4 6 9 8 8 12 14 11 7 7 9 9 8 7 6 7 7 6 8 9
29 29 30 31 32 34 34 32 32 30 23 16 10 8 10 8 8 7 4 3 4 4 5 5 5 5 4 4 4 4 4 5 5 5 6 5 4 6 7 8 8 7 7 8 5 1 3 4 2 3 1 2 3 3 4 5 7 6 5 4 3 2 2 4 3 5 4 2 5 9 7 8 13 13 8 5 7 8 6 6 6 5 6 7 7 7 9
28 28 29 30 31 32 32 31 31 29 28 21 9 7 14 14 11 10 5 3 4 4 5 5 5 4 4 5 5 3 4 9 9 5 4 5 6 7 8 7 6 5 6 7 6 6 5 3 4 4 3 3 4 5 8 9 8 5 4 4 3 2 3 3 2 5 3 1 3 6 5 7 10 8 5 5 7 7 6 6 6 6 6 5 6 7 7
26 27 28 28 29 31 31 29 29 28 29 24 11 8 14 14 8 7 4 2 4 4 4 5 3 4 8 10 9 6 4 4 5 4 3 6 9 10 9 6 4 3 4 5 5 7 8 7 7 6 5 6 6 7 10 13 12 7 4 4 3 3 4 3 1 4 3 2 3 5 6 6 6 3 2 3 5 5 6 7 6 5 3 2 3 4 3
25 26 26 27 28 29 29 28 27 25 25 24 15 10 15 16 8 5 2 2 5 4 4 5 6 7 10 10 9 10 8 3 3 4 3 4 7 8 7 5 3 2 6 4 5 7 8 8 9 10 9 8 10 12 14 14 13 10 7 6 5 5 5 4 2 3 3 2 5 2 8 7 2 2 3 5 5 2 3 7 4 2 4 5 6 6 5
24 25 25 26 27 27 27 27 26 24 22 21 19 16 17 17 10 3 3 2 4 3 4 7 9 9 10 10 8 10 11 8 6 6 4 4 5 6 5 3 3 4 6 4 5 6 7 5 6 8 8 9 11 13 15 16 15 13 11 9 9 7 5 4 3 3 3 1 3 4 9 8 5 4 4 5 5 3 4 6 5 4 5 5 5 5 6
23 24 24 25 25 25 26 25 26 26 22 19 19 18 17 17 11 4 3 2 3 5 4 6 9 8 9 10 9 7 8 8 6 6 5 5 5 5 5 5 5 1 2 3 5 4 3 2 3 4 5 6 7 7 10 13 15 17 16 14 12 9 6 4 4 4 4 4 4 4 7 10 7 3 1 1 1 2 4 1 5 5 5 4 4 5 7
22 22 23 23 23 23 24 24 24 26 24 20 18 16 16 17 13 8 4 2 4 5 2 1 7 9 7 7 8 6 5 5 5 5 6 5 4 5 4 6 8 2 5 4 3 2 1 1 2 3 3 3 4 5 5 6 8 13 16 16 14 13 10 7 5 5 5 4 4 3 5 8 4 2 1 2 5 7 7 3 3 4 5 6 5 4 5
21 21 21 22 22 22 22 22 22 23 24 22 18 16 16 15 15 12 8 3 2 3 3 5 10 9 6 4 6 6 4 4 5 5 5 5 7 7 6 9 11 5 3 2 2 2 1 0 1 2 3 3 5 6 5 5 5 5 7 8 10 13 12 8 6 5 4 5 5 4 5 6 3 4 3 2 5 6 6 4 3 4 3 3 3 3 4
21 21 21 21 22 21 21 21 21 21 21 22 19 16 16 14 15 14 8 3 2 5 5 8 10 7 4 4 5 5 3 3 4 3 3 4 7 9 7 7 9 6 2 2 1 1 0 1 1 2 3 4 6 6 5 5 5 5 7 7 5 4 5 6 7 7 5 4 4 3 3 2 1 4 3 2 3 5 7 3 5 5 4 3 1 1 4
20 21 21 20 21 21 20 19 20 19 19 20 19 16 15 13 15 13 7 3 3 4 4 11 11 6 5 6 5 4 4 3 3 3 3 3 4 7 6 4 5 4 2 2 2 1 0 2 2 3 4 4 5 5 5 5 5 4 5 6 6 4 1 4 6 6 6 5 4 3 1 0 2 2 1 2 2 5 3 4 6 4 6 5 1 1 4
20 20 20 20 20 20 19 18 19 19 19 19 18 15 14 12 13 12 7 3 2 3 8 15 12 6 8 8 4 3 5 5 4 4 4 3 4 8 8 3 2 2 1 1 1 1 1 2 2 2 3 4 4 4 5 4 4 4 5 5 4 4 4 1 1 3 4 4 3 3 1 1 2 2 2 1 2 1 3 5 3 1 3 4 3 3 3
19 19 19 19 19 19 18 18 18 18 19 19 18 16 14 12 11 10 7 4 4 5 9 12 10 11 11 8 4 4 5 4 4 3 3 3 5 8 6 3 3 3 3 3 2 0 1 2 2 2 3 3 3 3 4 5 5 5 5 5 4 3 2 3 3 2 1 0 1 2 1 2 4 3 2 2 1 3 4 3 2 0 1 1 2 2 2
19 19 18 19 18 18 18 17 17 17 17 17 18 17 15 13 12 12 10 7 4 3 6 11 16 19 16 12 11 11 7 5 5 3 3 3 3 4 2 3 5 4 2 2 1 1 1 2 2 2 2 3 3 2 3 4 5 6 6 5 4 3 2 2 2 2 1 2 2 1 1 2 4 3 1 3 5 5 4 2 2 3 2 2 3 3 4
19 19 18 18 17 16 17 17 16 16 16 16 16 14 13 14 15 15 14 11 7 6 11 19 24 25 25 23 21 18 14 13 10 4 2 2 2 1 3 5 5 3 2 3 2 2 2 2 2 2 2 2 2 3 5 4 3 5 7 5 4 4 4 0 2 0 0 2 4 4 4 4 1 2 4 5 5 5 3 3 3 4 3 3 3 4 6
19 18 18 18 17 16 15 15 16 16 15 15 14 13 13 16 17 17 16 13 9 11 16 21 21 20 20 19 16 15 15 14 11 8 5 3 2 3 3 3 4 3 3 3 1 2 2 1 1 2 1 2 3 3 5 4 3 3 4 4 5 5 6 1 2 3 4 3 3 4 6 6 6 6 6 5 5 3 3 3 3 4 4 3 3 5 6
19 18 18 18 17 16 15 15 16 16 16 15 13 12 14 15 15 16 14 8 5 6 9 10 8 7 10 13 10 6 8 9 10 11 11 8 3 2 3 1 1 2 2 0 2 1 2 1 1 2 1 2 3 3 4 4 4 4 4 4 4 5 6 5 4 5 4 4 5 5 6 7 8 7 5 6 6 5 3 3 4 5 5 5 5 6 7
19 19 19 18 16 15 15 16 16 16 16 15 13 13 13 13 13 13 11 6 3 4 4 4 6 10 14 20 19 13 11 14 13 10 11 15 12 7 6 5 3 2 3 2 1 2 1 1 1 2 2 1 2 3 4 4 4 3 3 3 3 4 5 5 5 5 4 6 8 8 7 7 6 3 3 4 5 5 4 4 5 5 5 5 6 7 7
19 19 19 17 16 15 15 16 16 16 16 16 15 14 14 14 13 12 10 8 4 3 3 3 7 14 21 24 23 20 19 17 15 12 11 13 15 15 13 8 4 3 3 2 1 2 2 1 1 3 3 2 2 3 4 4 3 4 4 5 4 4 4 4 5 6 6 8 8 7 8 9 7 4 4 6 6 6 6 6 5 4 4 5 6 8 8
19 19 18 17 16 16 16 17 17 17 17 17 16 15 15 15 13 11 11 8 3 2 2 2 4 13 21 22 23 23 21 18 17 16 15 13 13 13 13 9 4 3 2 2 2 2 2 1 2 3 3 2 3 4 4 5 5 4 5 5 4 4 6 5 4 4 5 5 5 4 5 8 7 5 6 7 7 7 7 6 5 5 5 4 5 9 11
19 20 19 17 17 17 17 18 18 18 19 19 17 16 16 16 14 12 11 10 6 3 3 3 5 12 16 17 20 21 20 20 21 20 17 15 13 13 10 7 5 4 3 2 1 1 1 3 2 2 2 1 1 3 4 4 4 4 6 6 5 5 6 5 4 5 6 7 7 5 5 6 7 6 6 7 7 7 7 6 6 8 7 5 4 8 10
20 21 20 19 18 18 18 18 19 19 19 17 16 16 15 13 11 11 11 12 9 5 2 3 6 7 9 13 20 22 21 21 22 22 19 15 12 11 8 5 5 3 2 2 2 2 3 3 2 2 2 3 1 2 3 3 4 5 8 9 7 5 7 7 7 7 8 8 7 6 5 6 7 7 7 7 7 8 7 6 6 7 6 5 6 8 9
21 21 21 21 20 19 18 18 18 18 17 16 13 11 8 3 1 2 5 7 6 2 1 2 4 5 7 11 15 18 21 21 19 15 11 8 5 5 6 5 3 1 1 1 2 2 3 2 2 3 4 5 3 2 2 2 4 7 9 9 7 6 7 7 7 8 8 7 5 4 5 6 7 7 7 7 8 7 5 4 5 7 6 6 7 7 7
22 22 22 22 21 19 17 17 16 15 15 12 8 5 2 2 4 6 6 4 3 2 1 2 3 4 6 7 9 14 18 15 10 9 9 8 6 6 7 6 2 2 2 1 0 1 2 2 2 3 3 5 4 2 2 1 4 8 8 6 6 7 8 8 7 7 7 6 5 5 5 6 5 4 5 7 8 8 5 5 8 10 9 8 8 8 9
24 24 24 23 21 19 17 16 15 14 13 11 9 8 7 6 7 9 8 4 3 3 1 2 3 3 2 4 9 14 14 10 8 6 5 4 3 3 5 5 3 4 4 3 1 2 3 3 4 5 4 4 4 1 2 3 6 10 10 7 6 7 8 8 7 6 5 5 4 4 6 6 5 3 5 7 9 9 7 8 11 14 12 9 9 10 9
26 26 24 21 20 19 18 16 16 15 14 13 13 14 14 13 13 11 8 5 4 4 1 0 3 3 2 4 8 8 7 6 4 4 2 2 3 2 3 4 4 4 5 5 3 2 2 4 4 4 4 3 3 2 4 6 9 12 11 10 9 9 7 6 5 5 6 4 2 1 5 8 7 7 7 8 8 8 8 9 11 12 10 7 7 8 5
26 23 21 20 20 19 17 16 15 13 11 10 10 10 10 9 10 10 8 5 4 3 2 1 2 3 3 5 5 2 5 4 3 2 3 4 3 2 2 3 2 2 3 4 3 2 3 3 3 3 3 2 2 1 4 8 11 12 11 11 10 7 5 5 5 6 6 4 3 4 7 8 7 7 7 7 7 8 9 8 8 8 6 5 5 3 1
22 21 21 21 21 20 17 15 14 10 7 8 8 7 7 7 7 8 7 4 2 2 1 1 2 2 3 4 4 2 6 5 3 3 3 4 3 2 2 2 2 2 3 4 3 3 3 3 3 2 3 2 1 2 5 8 9 8 8 8 7 5 4 5 5 5 5 4 3 5 6 5 6 6 6 6 6 6 7 6 6 6 6 4 2 2 3
20 21 21 21 20 18 13 9 8 6 4 5 8 9 9 9 8 8 7 6 5 3 1 1 2 3 3 4 3 3 4 3 3 2 2 3 3 2 1 1 3 4 3 2 2 3 3 2 2 2 3 3 3 4 4 4 6 7 7 8 7 5 6 6 6 5 4 3 2 3 4 5 5 5 4 5 5 5 6 6 7 8 8 4 2 4 4
19 20 20 20 16 9 3 1 2 1 5 8 8 9 9 7 5 5 5 6 7 6 2 1 3 4 3 2 2 2 3 2 2 3 2 2 2 1 1 2 3 3 2 2 3 4 3 3 2 2 3 4 3 3 5 5 6 7 7 8 8 6 6 6 5 3 2 1 2 4 4 4 4 4 4 6 7 7 7 7 6 7 8 5 2 3 3
19 18 17 16 10 2 2 3 4 8 12 11 7 5 4 3 3 3 3 3 4 5 3 1 3 4 2 2 3 4 4 3 3 2 2 2 2 1 1 2 2 1 2 3 3 2 2 3 2 3 4 3 1 3 5 6 6 6 6 8 8 5 4 3 1 1 1 1 3 5 6 5 6 6 5 6 7 6 7 8 7 6 4 1 3 5 6
18 16 14 12 6 1 3 9 12 14 14 9 4 2 2 2 2 1 2 2 2 2 3 2 4 4 4 3 4 4 3 3 3 3 2 2 1 1 1 2 1 1 2 3 2 1 1 2 2 3 3 2 3 3 5 6 6 6 6 7 6 5 3 2 3 5 5 4 5 5 5 5 6 6 5 5 6 7 7 7 6 2 2 5 7 7 6
16 14 10 7 5 8 15 19 18 15 11 4 3 2 0 2 2 1 2 2 1 2 3 3 3 3 3 2 3 3 3 2 2 3 3 3 2 1 2 2 1 1 2 3 2 1 1 2 3 3 2 2 3 5 5 5 5 5 6 6 5 4 3 3 6 9 8 7 7 7 6 5 5 5 5 5 6 6 7 7 5 6 7 8 9 10 9
14 11 7 8 12 20 26 23 16 9 5 2 2 1 1 2 2 1 2 2 2 1 2 1 1 1 1 2 3 2 3 2 2 2 2 2 1 1 1 2 1 1 2 3 2 2 2 2 2 2 2 4 5 6 5 5 5 5 5 5 4 3 4 6 10 12 10 8 7 7 8 8 7 6 6 6 5 5 5 6 7 11 13 13 14 15 15
15 15 16 19 22 23 20 13 6 3 1 0 0 1 1 2 2 2 1 1 1 1 0 0 1 1 1 2 2 2 3 3 2 1 1 2 1 0 1 2 1 1 3 3 2 2 2 2 3 3 3 5 6 6 6 5 4 3 3 3 3 4 6 9 11 12 12 10 8 7 8 10 10 9 8 8 7 7 8 9 9 14 19 20 19 20 19
20 20 18 16 13 9 6 4 2 2 1 0 0 1 2 2 1 1 1 0 1 1 2 1 1 2 2 1 1 2 3 3 1 0 1 2 1 0 1 2 1 2 3 2 1 2 2 2 3 3 4 5 6 6 6 5 4 4 5 5 5 7 11 11 11 12 13 12 11 10 10 11 12 12 14 15 12 10 12 15 16 18 21 22 20 18 14
18 15 9 6 3 2 2 1 1 1 1 1 1 1 3 2 1 2 2 0 1 1 2 1 2 3 3 2 2 2 3 2 1 1 1 1 1 1 2 2 2 2 3 1 1 2 2 2 2 4 5 5 6 6 6 6 5 4 4 4 5 10 13 12 11 11 11 11 11 12 12 13 15 16 18 19 16 12 13 18 22 24 25 23 21 18 14
11 6 2 2 2 1 0 1 0 1 2 2 2 2 3 3 3 3 2 2 1 2 3 3 3 3 4 3 2 1 1 1 0 1 1 1 1 1 2 2 2 2 2 2 2 2 2 3 4 5 6 7 7 6 5 4 4 3 3 3 5 9 10 9 8 8 8 8 9 10 12 14 16 17 17 20 21 20 18 19 22 24 25 24 23 23 23
5 3 2 3 3 1 0 1 2 1 1 2 2 2 3 3 3 3 1 2 2 3 3 4 3 3 4 3 2 2 2 1 1 1 1 1 2 2 2 2 1 1 2 2 2 2 3 4 4 4 6 7 7 5 4 4 4 3 2 3 5 8 8 8 8 9 9 10 10 9 11 13 14 15 17 20 23 24 22 22 23 25 25 23 22 24 27
3 2 2 2 2 2 2 2 2 3 3 4 4 4 4 3 3 3 1 2 2 2 3 3 2 3 4 3 2 2 2 1 1 1 1 1 1 1 1 1 1 1 1 2 2 2 4 4 4 4 5 6 6 5 4 4 4 4 3 2 6 8 8 8 9 10 11 11 11 10 11 12 13 14 17 19 20 21 23 24 26 27 27 25 25 27 29
2 2 2 2 2 2 2 2 3 4 4 4 4 5 4 2 3 4 2 2 3 3 3 2 2 3 3 2 2 3 2 1 2 2 1 1 1 1 1 1 1 1 1 1 2 3 5 5 4 3 4 5 5 4 4 4 4 4 5 3 5 8 9 8 9 11 11 11 11 10 11 12 13 14 16 16 17 19 22 24 26 28 28 27 28 28 28
3 2 2 2 2 2 3 4 5 6 5 5 5 5 4 3 3 4 2 2 3 2 1 0 1 2 2 2 2 2 2 1 1 1 1 1 1 1 1 2 2 1 1 1 2 4 5 5 4 3 3 4 4 4 4 4 4 4 4 4 3 6 10 11 11 12 12 12 11 11 12 12 13 14 16 15 15 16 19 23 25 25 26 27 27 26 25
4 2 3 3 3 4 4 4 5 5 5 5 5 4 3 3 3 3 0 3 3 2 2 1 2 1 1 1 2 2 1 1 1 1 2 2 1 1 1 2 2 2 3 3 3 4 5 4 3 3 3 4 5 4 4 4 3 3 1 1 3 7 12 13 13 13 13 12 12 13 14 14 14 15 16 15 16 18 20 22 23 23 23 24 25 23 22
3 2 3 4 5 5 4 4 4 5 5 5 6 5 4 2 3 3 1 3 3 2 2 2 2 1 1 1 1 1 1 1 1 1 2 2 1 0 1 2 3 3 4 4 4 4 4 3 3 3 3 4 4 3 3 3 4 5 5 4 5 9 12 13 14 14 14 14 13 12 12 13 15 16 17 17 17 18 17 17 18 20 21 22 22 22 20
3 3 3 3 4 5 5 5 5 6 6 5 5 5 4 3 4 3 2 2 2 1 0 1 1 1 2 2 1 1 1 1 1 2 3 2 1 0 2 3 4 4 4 4 4 3 2 2 2 2 3 3 3 3 4 6 6 4 2 2 5 8 9 11 13 13 13 13 13 12 11 13 14 15 15 15 14 12 10 10 13 16 17 17 18 18 18
Wind_Direction
11 14 14 12 11 11 9 10 10 7 5 3 359 353 328 302 318 275 310 16 2 7 336 321 333 326 335 339 335 350 356 335 332 321 301 308 337 1 349 350 359 334 328 329 314 316 310 304 315 310 323 341 121 120 68 58 56 60 65 52 335 322 83 359 287 281 278 285 283 273 276 285 292 298 312 307 267 147 155 191 184 149 203 196 139 229 274
10 13 14 13 11 10 8 8 9 9 8 3 357 348 316 311 291 253 345 9 11 36 276 331 335 316 340 359 348 350 349 322 312 307 293 333 10 4 328 328 325 303 312 307 301 313 310 301 318 309 313 324 281 87 92 111 102 106 159 182 249 262 97 55 324 318 321 326 314 295 309 333 321 298 317 329 347 45 72 159 121 156 218 192 162 227 256
10 11 12 12 11 10 8 6 6 8 6 1 356 325 276 310 280 268 346 358 10 60 246 326 306 320 359 5 343 338 324 308 315 314 310 360 358 338 306 317 319 313 323 317 307 312 307 292 302 302 300 288 285 303 139 148 135 150 160 144 124 167 164 116 195 260 275 265 222 298 345 342 321 305 311 314 318 325 348 59 70 268 253 212 186 231 264
8 10 10 11 11 10 8 6 4 6 5 0 353 311 260 335 320 321 335 348 8 354 325 1 22 360 11 353 319 315 299 305 322 326 350 36 328 308 321 328 334 336 330 317 304 312 318 315 313 306 298 281 295 328 341 16 130 143 143 126 102 119 174 165 186 218 236 235 243 303 336 317 300 306 305 295 294 313 24 57 217 225 266 273 226 221 283
7 8 9 9 10 10 9 7 4 6 8 2 354 322 273 351 337 355 339 319 349 353 343 12 20 344 347 326 297 301 297 301 321 342 6 325 298 270 188 329 330 323 319 314 299 296 294 292 297 304 300 306 331 340 345 7 119 144 142 127 113 114 193 209 210 229 245 249 263 286 299 286 283 290 288 280 285 337 19 310 249 238 294 288 254 215 274
7 7 8 8 10 11 11 9 6 7 11 11 9 358 4 13 312 13 16 308 322 350 331 329 329 320 319 309 291 297 302 303 305 305 299 301 310 323 331 252 277 300 305 293 277 283 291 291 309 327 329 341 350 341 341 2 43 256 336 112 130 139 209 215 214 238 247 247 262 271 262 264 269 268 270 277 297 332 307 260 255 250 243 252 253 237 229
7 7 7 7 9 12 12 11 10 7 11 29 38 36 3 16 327 350 30 355 298 309 306 302 296 289 287 283 273 280 291 293 287 283 282 329 1 7 357 301 302 323 317 307 318 30 360 300 321 352 355 350 352 333 321 338 343 326 324 307 168 144 209 220 225 258 264 257 267 273 269 275 275 267 269 283 308 301 277 268 270 262 245 248 268 281 260
7 7 7 6 8 12 13 14 14 12 16 39 49 45 19 8 330 333 360 330 299 293 299 303 293 281 274 266 267 268 269 277 289 309 339 9 3 358 347 331 337 342 327 329 2 96 159 178 251 342 356 347 342 324 299 318 330 329 324 308 333 85 255 273 270 276 276 261 263 270 272 277 275 274 282 303 300 285 276 274 279 278 272 275 302 313 291
7 7 8 6 7 11 14 15 15 18 26 33 32 31 19 354 335 342 328 296 313 305 299 312 305 296 282 262 277 290 304 331 349 358 357 353 337 337 345 348 351 346 326 326 342 15 153 161 220 270 276 304 313 306 302 313 316 317 321 318 338 24 307 317 327 284 266 195 258 275 286 288 280 279 288 287 271 266 255 248 245 240 257 282 307 304 282
7 7 8 8 7 9 13 16 15 19 29 28 10 3 12 358 342 352 350 276 306 313 297 300 290 292 325 321 312 324 2 2 4 4 345 343 345 354 7 5 357 354 336 323 330 341 334 304 271 251 225 244 277 283 288 293 289 285 300 306 321 352 327 331 324 286 283 125 265 297 339 319 285 266 233 223 239 253 259 259 251 234 227 247 265 255 257
7 7 7 7 7 7 10 14 16 18 22 21 2 331 359 3 338 335 354 287 299 310 297 301 304 323 340 345 345 344 355 8 5 356 342 345 344 347 355 353 344 342 306 301 338 350 339 335 326 303 281 279 282 276 273 274 271 269 275 280 284 297 288 276 239 268 285 39 21 346 327 285 260 233 199 254 276 277 278 281 273 256 235 223 258 268 306
7 7 6 6 6 7 7 9 13 16 17 16 7 337 351 4 348 314 348 311 296 310 306 309 328 334 336 349 358 347 342 9 38 12 344 326 325 324 328 336 345 300 278 296 6 353 337 350 344 324 313 306 295 284 273 265 260 255 248 251 266 269 256 243 222 243 268 49 66 332 268 251 236 21 330 305 303 304 295 291 292 22 21 357 333 335 7
6 5 5 6 6 6 6 6 8 11 10 13 11 355 354 9 14 337 338 315 285 314 333 321 324 336 345 350 351 346 346 354 12 6 329 285 282 288 288 283 263 266 284 318 21 360 329 336 338 325 322 311 293 279 267 259 254 249 240 235 241 237 227 230 224 229 267 298 137 209 258 277 304 322 311 297 301 17 21 320 318 19 14 347 345 358 10
4 3 3 4 4 5 6 4 5 6 5 8 10 5 8 21 23 346 328 338 291 305 324 318 320 337 354 347 338 341 342 339 352 354 320 284 278 275 262 264 270 267 42 22 33 25 348 336 337 326 317 306 294 277 262 251 243 238 233 227 227 225 214 210 216 213 222 233 213 224 279 290 289 292 318 274 222 111 95 291 299 343 17 38 50 29 10
1 1 1 1 2 4 4 3 4 4 3 5 9 11 17 20 15 356 339 326 299 298 287 333 333 334 342 337 329 330 333 335 349 337 312 304 303 292 290 311 318 11 91 72 53 58 17 353 336 315 306 303 298 292 290 277 250 237 229 222 218 218 212 201 206 204 185 210 245 258 271 275 262 190 200 146 147 150 132 119 304 333 29 46 51 36 7
358 359 359 359 0 2 2 2 3 3 2 3 5 6 10 16 16 2 339 306 295 293 297 350 346 330 316 325 336 347 360 350 345 337 326 333 327 318 340 355 346 356 86 100 102 105 94 158 226 267 270 277 280 279 290 302 297 281 264 245 223 214 211 205 214 218 182 191 229 230 239 258 226 170 183 147 146 150 112 68 302 287 351 24 49 29 343
357 357 357 356 357 359 0 1 1 1 2 2 360 355 355 10 19 2 336 305 304 272 284 348 354 335 327 346 343 352 12 344 338 347 337 329 321 316 333 357 346 345 50 108 123 108 124 229 244 265 258 268 284 289 293 297 300 308 316 314 294 232 204 199 216 237 228 211 233 245 246 268 95 119 139 146 131 100 72 11 273 256 273 267 139 345 291
355 355 355 354 354 357 359 360 358 359 1 0 359 351 346 5 18 4 341 325 305 262 320 352 348 334 346 350 329 335 360 352 347 342 302 285 309 317 323 347 345 349 48 80 81 87 280 248 239 263 269 274 283 286 289 295 294 298 311 317 316 319 294 182 191 222 237 233 249 264 248 112 52 51 196 202 78 62 65 246 239 236 259 258 194 237 270
353 353 353 353 352 354 357 358 356 358 359 359 0 353 348 3 9 356 345 335 291 276 317 329 333 342 347 346 336 342 358 351 345 344 322 310 338 335 332 337 337 325 334 351 111 142 226 253 241 259 271 267 270 277 280 283 287 301 315 313 308 316 317 299 178 207 211 199 210 242 287 266 215 225 281 328 40 66 220 230 234 263 297 318 349 325 304
351 351 352 352 351 351 354 355 354 355 357 360 359 348 342 352 356 349 347 337 316 299 293 304 332 346 340 339 332 325 345 351 342 349 329 307 341 354 349 346 344 339 341 345 347 168 231 251 257 270 264 264 289 301 292 297 305 314 324 319 314 321 310 305 316 291 223 101 237 225 305 270 210 193 5 10 168 212 237 262 322 296 176 335 324 308 307
348 348 349 350 348 348 349 350 352 353 353 357 358 346 333 338 346 349 347 333 313 288 286 308 327 325 312 299 292 289 286 276 280 316 324 298 341 8 315 301 330 335 344 354 328 287 295 282 275 286 292 309 336 331 319 324 319 324 341 341 324 339 358 313 325 16 50 357 308 241 259 264 215 181 202 224 218 229 225 208 263 259 219 188 207 244 253
346 345 346 347 347 345 345 346 347 348 347 349 353 344 328 327 331 336 337 324 293 270 284 295 300 296 289 287 281 269 264 262 255 250 281 291 319 310 264 294 311 300 335 13 349 311 331 324 309 323 328 325 323 317 324 327 301 317 343 341 309 347 23 271 231 15 29 251 258 274 296 304 258 206 243 261 265 256 217 192 245 254 231 199 204 239 253
342 342 343 344 343 341 342 342 341 341 341 344 347 340 325 321 322 328 331 319 297 287 284 284 288 287 285 288 277 254 253 258 249 241 248 252 272 274 265 290 314 328 19 47 31 335 339 349 333 337 326 315 321 316 310 301 278 299 321 306 295 340 20 36 248 320 333 296 270 290 307 315 313 302 306 328 342 347 4 353 313 280 267 259 244 253 260
339 340 340 339 338 337 338 337 335 336 338 340 339 331 320 314 318 329 331 319 310 312 295 290 299 288 289 310 318 271 250 263 264 253 234 206 194 311 297 262 353 16 1 165 134 31 341 281 300 305 277 300 312 300 281 279 286 293 297 301 311 340 10 6 325 325 339 318 307 321 323 317 316 321 343 3 357 346 344 330 297 278 275 273 270 276 276
336 337 336 335 334 334 333 333 333 334 335 336 334 328 318 309 314 327 326 310 305 321 317 314 300 293 313 333 338 333 323 316 307 281 230 206 201 214 237 248 238 215 252 269 90 75 335 285 308 298 292 273 260 259 255 259 276 298 300 296 300 329 1 354 312 303 301 284 291 314 329 326 328 346 357 334 313 299 284 263 253 257 269 280 293 299 292
335 335 335 333 332 330 330 331 331 331 331 330 328 322 310 301 304 309 305 303 306 290 278 281 292 316 338 340 326 322 329 324 314 305 273 241 227 223 224 235 251 226 214 249 226 162 190 195 205 265 268 246 245 260 260 261 283 302 290 270 268 299 316 293 274 286 286 276 288 324 332 319 313 310 297 287 274 266 261 251 245 258 277 292 306 304 289
333 334 333 331 329 327 325 326 326 327 328 326 321 313 302 295 294 287 280 286 302 299 280 255 291 326 334 324 310 316 328 321 311 306 290 272 263 249 225 206 219 252 231 244 244 165 158 204 220 236 248 270 298 287 273 278 285 278 269 266 262 272 275 264 268 283 273 265 287 319 310 296 290 288 289 285 274 261 254 248 252 263 259 263 297 298 286
331 332 330 326 323 322 322 322 322 322 323 321 317 309 297 286 278 268 264 262 252 260 301 297 299 315 316 305 303 314 320 316 312 306 291 275 266 256 232 194 199 228 205 196 213 147 202 242 236 233 242 270 313 279 267 279 279 256 255 260 243 237 256 263 266 266 256 258 268 265 255 268 278 280 283 286 286 273 254 239 241 248 242 227 239 261 269
328 327 325 322 319 319 319 319 319 320 321 320 317 309 299 287 269 251 245 248 249 256 305 300 290 299 303 301 306 311 311 305 296 288 283 276 260 251 247 227 218 218 180 166 190 216 239 239 226 235 214 154 163 255 244 241 255 250 252 255 246 243 261 268 270 272 271 268 265 259 255 266 277 284 289 292 290 278 261 248 249 254 254 247 234 236 248
326 324 322 321 318 317 317 318 319 321 320 318 314 304 294 309 11 257 245 248 251 253 330 290 288 300 299 295 296 293 290 291 291 292 300 307 295 286 291 281 249 186 159 196 203 221 252 246 225 235 207 164 169 262 244 212 253 257 252 254 262 271 274 272 273 278 283 286 284 278 274 275 280 287 288 286 286 284 274 267 269 264 263 271 264 250 251
325 322 320 319 318 317 317 317 319 322 318 311 307 300 268 92 46 2 333 300 259 232 244 261 277 299 294 281 278 282 286 298 324 347 347 345 344 330 313 307 318 115 139 195 227 251 258 242 236 254 224 170 164 246 255 235 269 268 263 265 271 272 275 277 276 278 285 294 296 287 278 281 290 295 292 293 298 298 290 280 276 267 260 264 267 262 261
325 324 323 322 320 319 320 320 322 323 313 290 269 265 274 283 298 315 328 319 264 248 258 277 280 289 289 286 294 302 314 336 358 350 330 326 327 296 269 255 223 176 162 156 173 229 224 208 222 250 238 168 140 201 248 232 252 264 273 280 271 265 270 273 275 282 284 282 296 308 300 295 288 268 270 286 292 289 279 273 273 268 261 257 264 270 268
327 327 323 320 319 319 318 318 319 315 303 283 266 263 270 274 275 283 300 306 273 249 193 86 286 277 280 300 302 313 336 349 340 329 308 242 214 225 237 232 220 195 166 155 176 222 212 192 208 240 237 187 157 217 247 242 253 266 278 283 275 271 274 277 286 293 281 256 191 213 264 271 270 260 263 274 282 285 281 272 269 269 262 256 270 278 269
327 325 321 319 318 315 311 311 313 309 294 277 270 270 272 270 270 275 280 280 271 250 207 185 268 269 285 294 291 348 25 359 303 296 297 265 233 219 254 260 258 220 183 172 184 221 221 203 203 232 246 211 151 198 252 254 260 266 272 274 274 276 289 300 299 290 276 255 211 218 238 252 266 272 275 277 282 293 297 287 280 279 268 252 261 271 217
325 324 322 319 314 308 302 297 296 295 278 261 263 271 269 268 279 285 272 247 236 252 230 207 234 264 300 290 275 3 20 350 281 257 283 298 313 318 270 268 304 275 221 194 195 226 231 203 179 204 238 222 163 212 247 261 273 280 282 286 289 294 298 289 274 268 273 272 258 252 255 265 276 281 285 286 288 300 313 315 317 319 305 274 229 174 173
328 325 324 322 316 310 302 285 263 255 272 283 283 283 278 276 282 279 253 227 222 239 283 317 249 253 287 297 294 336 349 314 282 288 308 314 320 319 307 309 291 266 236 218 249 259 249 212 171 201 233 230 233 251 268 290 302 302 299 296 291 285 279 269 255 258 286 298 275 263 269 280 290 294 300 308 317 329 337 338 335 328 319 299 201 186 193
335 331 330 329 324 316 317 127 170 256 317 315 299 284 275 267 260 247 230 220 218 216 225 309 269 256 275 295 280 282 282 286 335 346 321 300 303 306 323 306 279 269 288 289 269 263 262 254 245 253 246 236 251 312 336 328 305 294 295 295 287 277 273 269 259 260 276 301 348 349 344 338 338 343 344 343 345 345 339 332 318 307 305 292 211 158 122
342 339 337 333 329 332 93 38 357 332 321 310 292 275 259 224 211 221 207 192 197 194 183 222 254 248 240 230 256 282 289 306 338 329 296 296 311 304 302 288 270 288 312 286 263 266 281 273 259 256 256 260 341 357 333 312 301 303 309 304 297 293 285 281 301 3 19 74 31 12 7 2 353 353 357 350 341 331 318 305 289 280 289 313 103 95 88
349 346 340 334 333 3 335 327 326 323 314 294 247 227 222 194 201 231 186 171 180 180 175 208 238 235 223 232 270 306 331 342 329 315 312 322 317 292 302 308 318 354 317 289 289 342 312 288 284 264 263 310 352 324 301 298 305 315 315 309 313 326 326 343 54 68 69 65 51 32 17 1 349 349 351 340 328 321 313 307 299 270 121 99 96 96 95
355 351 340 333 333 322 319 322 323 320 309 272 184 161 226 210 211 221 200 201 203 174 178 202 224 224 227 263 300 330 4 9 315 288 288 291 272 250 277 288 310 346 287 272 280 305 252 270 278 266 275 333 326 302 301 308 310 310 309 312 330 351 356 22 53 66 67 57 47 36 22 8 358 352 346 335 329 328 329 337 17 72 90 91 88 88 87
345 340 323 306 303 305 309 315 316 309 293 241 178 201 234 221 228 234 229 249 263 209 167 176 278 280 325 354 341 326 330 316 268 247 270 282 262 249 285 281 274 280 270 269 292 309 284 273 276 282 314 324 304 293 301 307 302 302 306 308 326 3 50 61 56 55 54 50 48 42 30 24 22 9 352 341 340 351 356 5 41 65 72 73 76 77 77
315 309 298 292 294 297 299 300 291 260 236 313 296 263 249 248 263 268 238 236 315 336 9 71 330 305 333 348 313 272 266 266 249 222 284 284 267 240 278 274 255 258 266 276 310 324 306 292 290 302 329 331 315 309 311 302 297 327 6 6 359 33 66 72 63 55 55 56 54 47 40 35 28 19 15 14 19 37 45 39 46 64 70 71 74 77 78
320 313 298 284 281 283 274 251 209 178 188 213 158 244 276 268 257 290 300 66 49 333 286 278 346 354 356 349 294 264 261 268 273 124 266 277 288 314 276 263 242 250 262 281 318 312 293 292 297 308 327 333 329 330 334 330 334 15 33 28 37 63 75 77 74 67 64 62 57 49 44 40 32 31 37 39 37 45 57 56 57 65 73 76 77 78 75
323 314 292 253 236 246 260 257 128 118 213 241 177 216 270 272 270 299 295 189 152 256 270 349 14 349 327 310 289 272 271 273 256 162 242 275 285 274 266 258 243 255 270 293 307 277 264 270 297 310 322 332 335 338 340 344 355 15 13 9 47 74 78 77 76 74 67 58 53 48 44 42 42 43 43 42 40 46 59 63 65 68 71 73 73 72 67
316 311 298 272 285 310 359 315 293 188 218 229 204 207 236 252 265 271 244 175 172 297 328 18 20 339 306 298 286 268 278 290 204 181 275 291 277 247 253 258 264 287 310 313 300 297 307 314 316 322 329 331 331 330 330 332 342 352 357 19 60 77 79 76 77 78 70 57 50 45 43 46 50 50 47 45 47 51 56 61 66 70 70 69 66 65 65
290 288 312 302 290 274 193 279 280 260 254 266 262 255 249 247 262 276 270 97 48 355 358 19 9 327 299 292 281 258 266 280 270 242 251 257 253 251 257 272 294 327 321 303 292 302 315 315 318 327 328 325 325 327 324 324 341 1 23 62 81 87 88 86 83 79 75 69 62 53 48 48 52 56 55 52 51 53 57 61 66 69 69 66 63 62 63
285 292 308 299 288 270 236 232 240 252 269 280 285 284 280 277 289 305 329 104 86 30 16 18 345 289 268 265 272 272 270 267 259 246 221 219 257 278 282 292 308 305 289 291 295 300 309 314 318 320 323 328 335 332 326 336 10 23 15 63 98 100 95 90 87 84 82 79 72 63 58 56 58 63 65 60 55 55 59 62 65 67 67 66 64 64 63
298 316 291 270 272 257 244 268 295 290 287 293 295 291 295 319 330 323 335 98 101 73 42 23 326 292 283 283 277 276 279 281 272 260 228 216 267 286 290 286 288 266 238 273 299 308 313 315 312 310 323 332 332 328 338 5 24 15 358 21 87 100 98 90 86 86 86 85 81 75 70 68 67 69 72 69 63 60 63 65 67 68 69 68 66 64 63
264 276 262 261 282 281 285 307 309 297 289 292 295 304 333 354 324 297 304 82 82 63 50 31 273 287 307 312 294 280 272 270 270 281 319 302 284 307 321 294 284 288 309 317 317 312 306 301 303 323 347 344 336 345 13 21 13 7 6 12 61 100 104 103 101 98 95 94 95 94 91 85 80 79 78 75 71 69 71 72 73 72 72 73 72 69 66
246 242 237 244 264 280 290 294 289 286 296 307 305 309 334 339 305 288 306 101 90 47 11 297 254 254 253 261 274 276 273 270 284 305 302 284 262 260 287 280 275 300 315 308 295 292 294 303 333 1 359 347 340 352 17 19 1 347 350 44 110 114 113 113 115 116 113 111 109 107 105 102 98 94 91 88 86 84 81 80 80 81 80 80 79 76 72
241 245 243 242 251 265 279 282 277 282 291 295 293 297 312 311 287 293 352 97 98 58 2 307 281 288 274 249 250 267 280 286 297 276 267 263 237 209 273 273 276 284 286 279 279 291 313 351 21 9 348 342 342 342 345 340 319 290 264 229 149 128 124 125 128 131 134 135 133 127 121 117 113 109 104 100 94 88 84 83 86 89 90 88 86 85 83
243 250 259 260 259 263 268 268 268 271 274 273 279 295 304 285 267 282 350 71 104 126 248 261 265 276 268 252 251 280 280 270 273 274 274 286 345 273 243 254 263 269 277 288 299 315 18 51 20 330 312 311 317 323 321 315 305 286 249 139 112 112 118 126 132 137 140 143 145 146 145 141 136 128 118 109 98 91 90 93 94 95 96 96 95 93 92